Location: Unspecified
(43.4680°N, 87.1740°E)
Time: 21:35:52
(UTC+00:00)

SL-16 R/B - Pass Details

Date: 17 January 2020
Orbit: 841 x 848 km, 71.0° (Epoch: 17 February)

Event Time Altitude Azimuth Distance (km) Brightness Sun altitude
Rises 13:55:28 0° 337° (NNW) 3,418 5.6 -31.0°
Reaches altitude 10° 13:57:57 10° 340° (NNW) 2,478 4.8 -31.5°
Enters shadow 14:00:11 24° 345° (NNW) 1,678 3.8 -31.9°
